Weather in Talitsy

Russia / Vologda Oblast     59°38′45″N   38°48′08″E
temp.,
°C
wind,
m/s
gust,
m/s
humid.,
%
clouds,
%
prec.,
mm/h
press.,
hPa
HPBL,
m
4 december, sat
sat400:00−6ene4995100 0.9 997337
03:00−7ene4995100 3.3 995343
06:00−8ne3895100 3.8 994396
09:00−9nne4894100 5.4 996463
12:00−11nne4892100 0.6 999490
15:00−12n3793100 1.0 1002586
18:00−15n3792100 0.1 1006353
21:00−17n259687 0.1 1009112
5 december, sun
sun500:00−20nnw1210018 0.0 101226
03:00−21n2510010 0.0 101574
06:00−22nne2410021 0.0 101762
09:00−23nne121005 0.0 101929
12:00−19ne24945 0.0 1021154
15:00−21nne11995 0.0 102213
18:00−22nne26995 0.0 102389
21:00−24nne23995 0.0 102550
6 december, mon
mon600:00−25ne11995 0.0 102621
03:00−25ne23995 0.0 102749
06:00−26ene13995 0.0 102743
09:00−26e259913 0.0 102876
12:00−21e26955 0.0 1028163
15:00−20e26965 0.0 1027144
18:00−20e399490 0.0 1027197
21:00−17e399398 0.0 1026246
7 december, tue
tue700:00−16e399698 0.2 1025249
03:00−14e31095100 0.6 1023263
06:00−12e41095100 0.5 1021313
09:00−10e41194100 1.2 1019338
12:00−8e41094100 0.1 1017338
15:00−7e3995100 0.9 1015455
18:00−6e3995100 0.9 1014386
21:00−6ene2796100 1.4 1013280
8 december, wed
wed800:00−7ne1497100 0.4 101282
03:00−9ene1198100 0.8 101211
06:00−10nw1197100 0.3 101215
09:00−10wnw259796 0.5 1013102
12:00−10wnw269780 0.1 1015173
15:00−13w259883 0.1 101782
18:00−16wnw2410092 0.1 101958
21:00−19nw1110091 0.1 102110